Regional Weather Roundup
Issued by NWS Bismarck, ND

Home | Current Version | Previous Version | Text Only | Print | Product List | Glossary On
Versions: 1 2 3 4 5 6 7 8 9 10 11 12 13 14 15 16 17 18 19 20 21 22 23 24 25 26 27 28 29 30 31 32 33 34 35 36 37 38 39 40 41 42 43 44 45 46 47 48 49 50
000
ASUS43 KBIS 042110
RWRBIS

NWR BROADCAST TEXT
NATIONAL WEATHER SERVICE BISMARCK ND
400 PM CDT FRI SEP 04 2015

NOTE: "FAIR" INDICATES FEW OR NO CLOUDS BELOW 12,000 FEET WITH NO
SIGNIFICANT WEATHER AND/OR OBSTRUCTIONS TO VISIBILITY.


CITY           SKY/WX    TMP DP  RH WIND       PRES   REMARKS
WILLISTON      FAIR      73  57  57 N16       29.86F
MINOT          CLOUDY    73  62  68 NW15G21   29.81R
MINOT AFB      NOT AVBL
BISMARCK       FAIR      86  67  52 CALM      29.77R
DICKINSON      PTSUNNY   75  64  68 NE8       29.83S
GARRISON         N/A     81  65  58 N6        29.80S
HETTINGER ARPT FAIR      89  56  32 VRB6      29.80F
JAMESTOWN      FAIR      79  66  64 SE6       29.78F
CROSBY         CLOUDY    68  54  60 NE15      29.89S
HARVEY         MOCLDY    77  73  88 NE14G22   29.77R
HAZEN          FAIR      81  66  61 N9        29.79S
LINTON         FAIR      90  64  43 SE3       29.76F HX  91
OAKES            N/A     82  82 100 E8        29.78F HX  97
RUGBY          FAIR      72  66  83 E12       29.76F
STANLEY        CLOUDY    61  61 100 N14       29.89R
$$

CITY           SKY/WX    TMP DP  RH WIND       PRES   REMARKS
GRAND FORKS    PTSUNNY   78  65  63 SW9       29.79R
GRAND FORKS AF FAIR      75  70  83 S7        29.80R
DEVILS LAKE    CLOUDY    68  63  83 E8        29.79R
FARGO          LGT RAIN  79  71  76 SE8       29.81R
CAVALIER       LGT RAIN  64  63  94 E3        29.81R
GRAFTON        FAIR      66  66 100 N12G18    29.81F
GWINNER        MOCLDY    79  79 100 E13       29.80S
LANGDON        DRIZZLE   66  66 100 E8        29.83R
ROLLA          CLOUDY    64  64 100 NE8       29.80F FOG
WALHALLA       LGT RAIN  66  66 100 MISG      29.83R
$$

CITY           SKY/WX    TMP DP  RH WIND       PRES   REMARKS
ABERDEEN       FAIR      88  69  53 S10       29.77S HX  92
MOBRIDGE       FAIR      92  63  38 VRB3      29.73F HX  93
BUFFALO          N/A     88  57  34 CALM      29.76F
RAPID CITY     FAIR      89  55  31 N5        29.80F
GLASGOW        PTSUNNY   75  47  36 NE17G23   29.87F
SIDNEY         FAIR      73  55  53 N15G21      N/A
WOLF POINT     FAIR      77  53  43 E15G25    29.86F
GLENDIVE       CLOUDY    66  55  68 NE8       29.87F
MILES CITY     CLOUDY    73  53  49 VRB3      29.85F
BAKER          FAIR      76  58  53 N6        29.85F
$$

CITY           SKY/WX    TMP DP  RH WIND       PRES   REMARKS
BILLINGS       FAIR      68  45  43 VRB7      29.90F
GREAT FALLS    LGT RAIN  51  49  92 N7        29.99R
REGINA         MOSUNNY   64  39  39 NE22      29.97F
ESTEVAN        CLOUDY    66  54  63 NE10G18   29.90R
$$




USA.gov is the U.S. government's official web portal to all federal, state and local government web resources and services.